[[{"header":{"parameterUnit":"m.s-1","parameterCategory":1,"la1":30.2991,"la2":30.254,"lo1":-89.0895,"lo2":-89.0444,"dy":0.0017,"dx":0.0017,"nx":28,"ny":28,"refTime":"2024-05-26T21:00:00:Z","depth":0,"parameterNumber":2,"parameterNumberName":"U-component_of_WINDS"},"data":[0,0,0,0,0,0,0,0,0,0,0,0,0,0,0,0,0,0,0,0,0,0,0,0,0,0,0,0,0,0,0,0,0,0,0,0,0,0,0,0,0,0,0,0,0,0,0,0,0,0,0,0,0,0,0,0,0,0,2.1212,2.1212,0,2.1267,2.1268,2.1268,2.1241,2.1239,2.1238,2.1236,2.1294,2.1297,2.13,0,0,0,0,0,0,0,0,0,0,0,0,0,2.1081,2.1084,2.1212,2.1212,2.1213,2.1267,2.1268,2.1269,2.1241,2.1239,2.1237,2.1236,2.1293,2.1297,2.13,0,0,0,0,0,0,0,0,0,0,0,0,0,2.1137,2.1084,2.1212,2.1206,2.1206,2.1267,2.1268,2.1269,2.1241,2.1239,2.1237,2.1235,2.1292,2.1296,2.1301,2.1371,0,0,2.1314,2.1316,0,0,0,0,0,0,0,0,2.1134,2.1142,2.1206,2.1206,2.1206,2.1245,2.1243,2.1303,2.1242,2.1228,2.1236,2.1234,2.128,2.1285,2.13,2.1374,2.1376,2.1314,2.1317,2.1319,2.132,0,0,0,0,0,0,0,2.113,2.114,2.1234,2.1207,2.1207,2.12,2.1206,2.1254,2.1265,2.1229,2.1227,2.1234,2.1279,2.1296,2.1301,2.1377,2.1314,2.1318,2.1321,2.1323,2.151,2.1512,0,0,0,0,0,0,2.1127,2.1137,2.1232,2.1235,2.1164,2.1204,2.121,2.1235,2.1265,2.1267,2.1236,2.1232,2.129,2.1296,2.1303,2.1386,2.1319,2.1323,2.1325,2.1507,2.151,2.1513,0,0,0,0,0,0,2.1124,2.1135,2.123,2.1185,2.1197,2.1209,2.1236,2.1237,2.1253,2.127,2.1272,2.1251,2.1288,2.1297,2.1354,2.1388,2.1325,2.1329,2.1505,2.1508,2.1511,2.1554,0,0,0,0,0,0,2.112,2.1135,2.1162,2.1186,2.1199,2.128,2.1238,2.124,2.1261,2.1257,2.1284,2.1287,2.1287,2.1348,2.1358,2.1393,2.1332,2.1502,2.1506,2.151,2.155,2.1559,2.1566,0,0,0,0,0,2.1116,2.1172,2.1163,2.1175,2.1233,2.1282,2.1289,2.1288,2.1264,2.1291,2.1301,2.1286,2.1383,2.1354,2.1366,2.1402,2.1499,2.1505,2.151,2.1546,2.1557,2.1566,0,0,0,0,0,0,2.1152,2.1175,2.1166,2.1232,2.1255,2.1277,2.1311,2.13,2.1331,2.1326,2.1324,2.133,2.1389,2.1401,2.1369,2.1471,2.1437,2.1445,2.1461,2.1471,2.1479,2.1475,2.1336,0,0,0,0,0,2.1168,2.1205,2.1223,2.128,2.1292,2.13,2.1321,2.1317,2.1342,2.1351,2.1366,2.139,2.1425,2.1449,2.1483,2.1551,2.1556,2.1582,2.159,2.1597,2.1604,2.1639,2.1651,2.153,2.153,2.153,0,0,2.1201,2.1218,2.1242,2.1287,2.1305,2.1343,2.1308,2.135,2.1378,2.1358,2.1412,2.1423,2.145,2.1512,2.1541,2.1525,2.1638,2.1604,2.1609,2.1612,2.1646,2.1658,2.1668,2.1534,2.1533,2.1533,0,0,2.128,2.1297,2.1345,2.1363,2.139,2.1394,2.1406,2.1429,2.1436,2.149,2.1475,2.1508,2.157,2.1589,2.1607,2.1691,2.1678,2.1702,2.1746,2.178,2.179,2.1798,2.1827,2.1838,2.1709,2.1709,2.1709,0,2.1317,2.1374,2.1371,2.1414,2.1434,2.1417,2.1465,2.1482,2.1519,2.1533,2.1514,2.159,2.1607,2.1673,2.1693,2.1709,2.1721,2.1699,2.1789,2.1797,2.1805,2.1833,2.1844,2.1712,2.1711,2.1711,2.1711,0,2.1418,2.1458,2.1494,2.1528,2.1552,2.1598,2.1601,2.1626,2.1621,2.1627,2.1682,2.1701,2.1737,2.1753,2.1749,2.1818,2.1807,2.1789,2.1755,2.1819,2.1845,2.1856,2.1716,2.1715,2.1714,2.1713,0,0,2.1523,2.1554,2.1567,2.1582,2.1609,2.164,2.1684,2.1719,2.174,2.1765,2.1802,2.1853,2.1836,2.1856,2.1854,2.1884,2.1948,2.1862,2.1862,2.1876,2.2025,2.2038,2.205,2.194,2.1942,2.1943,2.2022,0,2.1603,2.168,2.1678,2.1749,2.1785,2.1768,2.1806,2.1827,2.1834,2.1865,2.1873,2.1909,2.1884,2.1895,2.1925,2.1934,2.1978,2.1929,2.1973,2.1975,2.1966,2.2064,2.2078,2.2152,2.2032,2.2034,2.2035,0,2.1707,2.1735,2.1809,2.183,2.1845,2.1879,2.191,2.1941,2.1964,2.1966,2.1988,2.198,2.2024,2.1989,2.205,2.2016,2.2034,2.2041,2.2044,2.2048,2.2009,2.207,2.2175,2.2186,2.2051,2.205,2.2049,0,2.1774,2.183,2.1882,2.1895,2.1921,2.1945,2.1957,2.1978,2.1998,2.2025,2.2039,2.2071,2.2089,2.2114,2.2115,2.2089,2.2175,2.2141,2.2178,2.2178,2.2197,2.2196,2.2306,2.221,2.221,2.221,2.2209,0,2.1863,2.191,2.1912,2.1944,2.1995,2.1992,2.2042,2.2051,2.207,2.2102,2.209,2.2121,2.212,2.2152,2.2153,2.2202,2.2211,2.2214,2.2213,2.2215,2.2214,2.2226,2.2221,2.2212,2.2212,2.2211,2.2211,0,2.1947,2.1951,2.2006,2.2025,2.2031,2.2067,2.2083,2.2113,2.2118,2.216,2.217,2.2178,2.2214,2.2217,2.226,2.2261,2.232,2.2314,2.2312,2.2311,2.2348,2.2344,2.247,2.2485,2.2379,2.238,2.2381,0,2.2003,2.2038,2.2061,2.2082,2.2095,2.2129,2.2149,2.2147,2.2169,2.2197,2.2223,2.2258,2.2286,2.2345,2.2354,2.2386,2.2381,2.2423,2.2386,2.2385,2.2381,2.2378,2.2381,2.243,2.2431,2.2432,2.2433,0,2.2103,2.2103,2.2133,2.2163,2.2188,2.2212,2.2234,2.2252,2.2253,2.2278,2.2315,2.2336,2.2379,2.2413,2.2444,2.2456,2.2445,2.2444,2.2454,2.2456,2.2453,2.2454,2.2331,2.2441,2.2441,2.244,2.2439,2.2439,2.2174,2.2204,2.2224,2.2257,2.2274,2.2294,2.2323,2.2331,2.2361,2.2395,2.2392,2.2433,2.2453,2.2494,2.2508,2.2539,2.2525,2.254,2.2544,2.2547,2.2551,2.2448,2.2545,2.2545,2.2544,2.2544,2.2544,0,2.2272,2.2283,2.2314,2.2346,2.2372,2.2358,2.2381,2.2404,2.244,2.246,2.2487,2.2528,2.2561,2.2573,2.2605,2.2628,2.2623,2.2636,2.2634,2.2637,2.2562,2.2549,2.2639,2.2639,2.2639,2.2639,2.2639,2.2639,2.2326,2.2375,2.2377,2.2433,2.2444,2.2483,2.2498,2.2517,2.2532,2.2579,2.2606,2.2613,2.263,2.2662,2.2692,2.2694,2.2707,2.2722,2.2722,2.2652,2.2642,2.2633,2.2621,2.2725,2.2725,2.2794,2.2795,2.2795]},{"header":{"parameterUnit":"m.s-1","parameterCategory":1,"la1":30.2991,"la2":30.254,"lo1":-89.0895,"lo2":-89.0444,"dy":0.0017,"dx":0.0017,"nx":28,"ny":28,"refTime":"2024-05-26T21:00:00:Z","depth":0,"parameterNumber":3,"parameterNumberName":"V-component_of_WINDS"},"data":[0,0,0,0,0,0,0,0,0,0,0,0,0,0,0,0,0,0,0,0,0,0,0,0,0,0,0,0,0,0,0,0,0,0,0,0,0,0,0,0,0,0,0,0,0,0,0,0,0,0,0,0,0,0,0,0,0,0,5.9007,5.9009,0,5.9131,5.9132,5.9134,5.9124,5.9123,5.9121,5.9119,5.9242,5.9246,5.9251,0,0,0,0,0,0,0,0,0,0,0,0,0,5.8758,5.8762,5.9007,5.9009,5.901,5.9131,5.9132,5.9134,5.9125,5.9123,5.912,5.9118,5.924,5.9246,5.9252,0,0,0,0,0,0,0,0,0,0,0,0,0,5.8872,5.8764,5.9007,5.902,5.9023,5.913,5.9132,5.9135,5.9125,5.9123,5.912,5.9117,5.9238,5.9245,5.9253,5.9354,0,0,5.9275,5.9279,0,0,0,0,0,0,0,0,5.8866,5.8881,5.9017,5.9019,5.9022,5.911,5.9089,5.9208,5.9126,5.9086,5.9119,5.9116,5.92,5.921,5.9239,5.9359,5.9365,5.9276,5.9281,5.9284,5.9286,0,0,0,0,0,0,0,5.8858,5.8876,5.9056,5.9019,5.9022,5.9018,5.9032,5.9112,5.9157,5.9089,5.9089,5.9104,5.9201,5.9232,5.9242,5.9366,5.9276,5.9282,5.9287,5.929,5.9575,5.9577,0,0,0,0,0,0,5.8847,5.8869,5.9052,5.906,5.8936,5.9025,5.904,5.9084,5.9156,5.9164,5.9106,5.9103,5.9221,5.9233,5.9246,5.9369,5.9284,5.9291,5.9295,5.9571,5.9575,5.9579,0,0,0,0,0,0,5.8842,5.8864,5.9047,5.8965,5.8988,5.9032,5.9082,5.9088,5.912,5.9169,5.9176,5.9131,5.9219,5.9236,5.9327,5.9373,5.9294,5.9301,5.9568,5.9573,5.9577,5.9615,0,0,0,0,0,0,5.8835,5.8862,5.8902,5.8966,5.8992,5.9127,5.9085,5.9093,5.9133,5.913,5.9193,5.9201,5.9218,5.9316,5.9334,5.9382,5.9307,5.9564,5.957,5.9575,5.961,5.962,5.9629,0,0,0,0,0,5.8826,5.8907,5.8904,5.8926,5.9043,5.913,5.9145,5.9164,5.9137,5.9177,5.9208,5.9199,5.9365,5.9325,5.9346,5.9396,5.9561,5.9568,5.9575,5.9605,5.9618,5.9629,0,0,0,0,0,0,5.8847,5.8916,5.8913,5.9018,5.9068,5.9128,5.9179,5.9177,5.9236,5.923,5.925,5.9265,5.9356,5.9385,5.934,5.9497,5.9459,5.9471,5.9475,5.9488,5.9497,5.9488,5.9313,0,0,0,0,0,5.8864,5.893,5.8986,5.9072,5.9098,5.9134,5.9173,5.9183,5.9236,5.9257,5.9295,5.9345,5.9408,5.945,5.9511,5.9614,5.9627,5.9658,5.9668,5.9676,5.9685,5.9741,5.9755,5.9601,5.9601,5.9601,0,0,5.8899,5.8945,5.8985,5.9078,5.9118,5.9185,5.9153,5.9224,5.9273,5.9267,5.9356,5.9386,5.9443,5.954,5.9585,5.9567,5.9731,5.9685,5.969,5.9696,5.9749,5.9764,5.9777,5.9606,5.9605,5.9604,0,0,5.8997,5.9039,5.9115,5.9157,5.9219,5.9242,5.926,5.9321,5.9341,5.9431,5.9427,5.9485,5.9594,5.9634,5.9669,5.9782,5.9775,5.9801,5.9852,5.9906,5.9918,5.9929,5.9968,5.9982,5.981,5.981,5.981,0,5.9032,5.9134,5.9154,5.9227,5.9267,5.9266,5.9342,5.9381,5.9459,5.9486,5.9465,5.9602,5.964,5.9746,5.9774,5.9803,5.9823,5.9794,5.9915,5.9926,5.9936,5.9974,5.9989,5.9813,5.9813,5.9812,5.9812,0,5.9174,5.9245,5.9298,5.9375,5.9422,5.9496,5.9525,5.9569,5.9576,5.9601,5.9691,5.9737,5.9807,5.9833,5.9839,5.994,5.9927,5.9911,5.9873,5.9953,5.9989,6.0003,5.9817,5.9816,5.9815,5.9814,0,0,5.9289,5.9376,5.9396,5.943,5.9498,5.9552,5.9625,5.9695,5.9732,5.9785,5.9846,5.9938,5.9923,5.9962,5.9973,6.002,6.0106,5.9998,5.9999,6.0016,6.0218,6.023,6.0247,6.0102,6.0105,6.0107,6.0213,0,5.9394,5.9526,5.9545,5.9661,5.9725,5.9724,5.9788,5.9835,5.986,5.9917,5.9944,6.0009,5.9984,6.0008,6.0055,6.0085,6.0146,6.0078,6.0157,6.016,6.0143,6.0266,6.0279,6.0377,6.0228,6.023,6.0232,0,5.9534,5.9592,5.9714,5.9773,5.98,5.9858,5.9922,5.9977,6.0031,6.0045,6.0089,6.0094,6.0168,6.0127,6.0229,6.0182,6.0215,6.0235,6.0239,6.0247,6.02,6.0276,6.0409,6.0424,6.0254,6.0252,6.0251,0,5.9605,5.9714,5.9801,5.983,5.9901,5.9941,5.9971,6.0022,6.0062,6.0118,6.0144,6.0208,6.0243,6.0291,6.0312,6.028,6.0412,6.0373,6.0425,6.0425,6.0453,6.0451,6.0592,6.0475,6.0475,6.0474,6.0474,0,5.9719,5.9794,5.9833,5.9887,5.997,5.9991,6.0071,6.0101,6.0146,6.0204,6.0206,6.026,6.0285,6.0342,6.0359,6.044,6.0455,6.0468,6.0472,6.0468,6.0466,6.049,6.0484,6.0478,6.0478,6.0477,6.0476,0,5.9812,5.9842,5.9937,5.9996,6.0012,6.0071,6.012,6.0171,6.0196,6.0269,6.0287,6.0325,6.0392,6.0418,6.05,6.0511,6.0605,6.0603,6.0587,6.0588,6.0639,6.0633,6.08,6.0823,6.0691,6.0692,6.0693,0,5.9883,5.9941,6.0006,6.0046,6.0078,6.0142,6.0183,6.0205,6.0248,6.0312,6.0355,6.0423,6.0478,6.0586,6.062,6.0682,6.0681,6.0735,6.0691,6.0685,6.0681,6.0678,6.0683,6.0744,6.0745,6.0746,6.0747,0,6.0006,6.0018,6.0078,6.0143,6.0193,6.0245,6.0295,6.0327,6.0357,6.0404,6.0474,6.0517,6.0601,6.0667,6.0731,6.0761,6.0759,6.0761,6.0776,6.0773,6.0761,6.0767,6.061,6.0757,6.0756,6.0755,6.0755,6.0754,6.009,6.0141,6.0195,6.0261,6.0302,6.0349,6.0399,6.043,6.0489,6.056,6.0569,6.0644,6.0694,6.078,6.0813,6.087,6.0856,6.0878,6.0883,6.0889,6.0892,6.0752,6.0882,6.0882,6.0881,6.0881,6.0881,0,6.0212,6.0247,6.0308,6.0379,6.0431,6.0425,6.048,6.0524,6.059,6.0638,6.0692,6.0771,6.0836,6.0875,6.0939,6.0977,6.0978,6.0993,6.0991,6.0997,6.0902,6.0882,6.0992,6.0992,6.0992,6.0992,6.0992,6.0992,6.0282,6.0367,6.0385,6.049,6.0523,6.0597,6.0629,6.0672,6.071,6.0799,6.0853,6.0878,6.0922,6.099,6.1048,6.1058,6.1081,6.1098,6.1106,6.1016,6.1004,6.0993,6.0975,6.1103,6.1103,6.1197,6.1198,6.1199]}]]